Location: Unspecified
(40.7945°N, 0.0000°E)
Time: 09:19:17
(UTC+00:00)

Explorer 7 - Visible Passes

Search period start: 24 January 2021 00:00
Search period end: 03 February 2021 00:00
Orbit: 484 x 678 km, 50.3° (Epoch: 23 January)

Date Brightness Start Highest point End Pass type
(mag) Time Alt. Az. Time Alt. Az. Time Alt. Az.
24 Jan 9.2 04:34:45 19° NE 04:34:45 19° NE 04:36:00 10° ENE visible
24 Jan 8.0 06:11:04 18° NW 06:12:55 26° NNW 06:16:24 10° NE visible
25 Jan 9.1 04:39:18 19° NE 04:39:18 19° NE 04:40:32 10° NE visible
25 Jan 8.2 06:15:36 15° NW 06:17:44 23° N 06:21:01 10° NE visible
26 Jan 9.1 04:43:46 18° NE 04:43:46 18° NE 04:45:02 10° NE visible
26 Jan 8.4 06:20:04 13° NW 06:22:34 21° N 06:25:44 10° NE visible
27 Jan 9.0 04:48:11 18° NNE 04:48:11 18° NNE 04:49:32 10° NE visible
27 Jan 8.5 06:24:29 11° NW 06:27:24 21° N 06:30:34 10° NE visible
28 Jan 9.0 04:52:34 18° NNE 04:52:34 18° NNE 04:54:06 10° NE visible
28 Jan 8.5 06:29:06 10° NW 06:32:14 22° N 06:35:30 10° ENE visible
29 Jan 8.9 04:56:56 18° NNE 04:56:56 18° NNE 04:58:43 10° NE visible
29 Jan 8.4 06:33:44 10° NW 06:37:03 25° NNE 06:40:30 10° ENE visible
30 Jan 8.8 05:01:16 19° NNE 05:01:16 19° NNE 05:03:27 10° NE visible
30 Jan 8.1 06:38:17 10° NW 06:41:49 30° NNE 06:45:31 10° E visible
31 Jan 8.6 05:05:37 20° NNE 05:05:37 20° NNE 05:08:18 10° NE visible
01 Feb 8.5 05:09:58 22° N 05:10:06 22° N 05:13:16 10° ENE visible
02 Feb 8.3 05:14:20 24° N 05:14:54 25° NNE 05:18:16 10° ENE visible
